Regional Weather Roundup
Issued by NWS

Home | Current Version | Previous Version | Text Only | Print | Product List | Glossary Off
Versions: 1 2 3 4 5 6 7 8 9 10 11 12 13 14 15 16 17 18 19 20 21 22 23 24 25 26 27 28 29 30 31 32 33 34 35 36 37 38 39 40 41 42 43 44 45 46 47 48 49 50

000
ASUS43 KLOT 260308
RWRIL

ILLINOIS REGIONAL WEATHER ROUNDUP
NATIONAL WEATHER SERVICE CHICAGO/ROMEOVILLE IL
1000 PM CDT SUN SEP 25 2016

NOTE: "FAIR" INDICATES FEW OR NO CLOUDS BELOW 12,000 FEET WITH NO
SIGNIFICANT WEATHER AND/OR OBSTRUCTIONS TO VISIBILITY.

* THESE STATIONS ARE NOT UNDER NWS QUALITY CONTROL. THEY ALSO MAY NOT
  REPORT WEATHER SUCH AS PRECIPITATION OR FOG.

ILZ001-002-007-009-015-016-024-260400-
NORTHWEST ILLINOIS

CITY           SKY/WX    TMP DP  RH WIND       PRES   REMARKS
MOLINE         MOCLDY    66  49  54 W12       30.05R
STERLING*      LGT RAIN  65  55  70 W12       30.02F
SAVANNA*       MOCLDY    65  52  61 W12G17    30.02S
$$

ILZ003-004-008-010-011-017-018-260400-
NORTH CENTRAL ILLINOIS

CITY           SKY/WX    TMP DP  RH WIND       PRES   REMARKS
ROCKFORD       LGT RAIN  66  52  60 W8        30.00F
FREEPORT*      CLOUDY    62  54  73 W7        30.02F
ROCHELLE*      CLOUDY    65  55  67 W14G21    30.01S
DE KALB*       CLOUDY    66  56  70 W10G16    30.00S
$$

ILZ005-006-012>014-019>023-260400-
NORTHEAST ILLINOIS

CITY           SKY/WX    TMP DP  RH WIND       PRES   REMARKS
CHICAGO-OHARE  CLOUDY    72  61  68 NW21G29   29.94R
CHICAGO-MIDWAY MOCLDY    77  65  66 W20G28    29.93R
AURORA         CLOUDY    70  57  63 W9G20     29.98R
LANSING*       LGT RAIN  74  69  84 W15       29.94S
JOLIET*        CLOUDY    73  62  69 W12G21    29.98R
WAUKEGAN       CLOUDY    68  62  81 VRB7      29.92R
DUPAGE AIRPORT CLOUDY    69  55  60 W17G29    29.96R
KANKAKEE*      CLOUDY    75  66  74 W9        29.97R
WHEELING       MOCLDY    70  57  63 W17G31    29.95R
MORRIS*        CLOUDY    70  57  64 W12G17    29.98R
ROMEOVILLE*    CLOUDY    70  60  70 W16G24    29.97R
NORTHERLY ISL    N/A     77  64  64 NW9         N/A
$$

LMZ740>746-260400-
SOUTHERN LAKE MICHIGAN

STATION/POSITION SKY/WX   TEMP    WIND        PRES    VSBY  WAVE
                          AIR SEA DIR/SP/G                  HT/PER
                          (F)     (DEG/KT/KT) (MB)    (MI)  (FT/S)
SOUTHERN BUOY              74 72  160/ 14/ 17 1010.6F         2/ 3
WILMETTE HARBOR            71 66  310/ 14/ 23   N/A           1/ 3
HARRISON CRIB              77     200/ 14/ 15   N/A
BURNHAM HARBOR             77     300/  9/ 16   N/A
CALUMET HARBOR             76     200/  7/  9 1012.7R
BURNS HARBOR               75     190/ 10/ 15 1013.5S
MICHIGAN CITY              75     150/ 13/ 15   N/A
MICHIGAN CITY 6N           72 68  230/ 12/ 16   N/A           1
ST. JOSEPH                 72 68  160/ 10/ 14 1012.1F         1/ 2
$$

ILZ025>027-034>036-040-047-049-050-058-095>099-260400-
WEST-CENTRAL ILLINOIS

CITY           SKY/WX    TMP DP  RH WIND       PRES   REMARKS
QUINCY         LGT RAIN  65  55  70 NW10      30.11R
GALESBURG*     CLOUDY    65  53  64 W7        30.07R
MACOMB*        CLOUDY    65  53  63 NW10G18   30.10R
JACKSONVILLE*  CLOUDY    68  55  62 NW14      30.07R
PITTSFIELD*    CLOUDY    67  57  68 NW12      30.11R
$$

ILZ028>032-037-038-041>044-048-051>054-059>061-260400-
CENTRAL ILLINOIS

CITY           SKY/WX    TMP DP  RH WIND       PRES   REMARKS
PONTIAC        MOCLDY    70  58  65 NW16G25   30.01S
BLOOMINGTON    PTCLDY    69  56  62 NW15G24   30.03R
DECATUR        PTCLDY    77  66  68 NW16G24   30.01R
PEORIA         CLOUDY    67  55  65 NW8G17    30.04S
LACON*         CLOUDY    67  53  60 NW10      30.03S
SPRINGFIELD    PTCLDY    72  60  66 NW12G21   30.04R
TAYLORVILLE    PTCLDY    74  66  75 NW8G17    30.02S
$$

ILZ033-039-045-046-055>057-062-063-260400-
EAST-CENTRAL ILLINOIS

CITY           SKY/WX    TMP DP  RH WIND       PRES   REMARKS
CHAMPAIGN      MOCLDY    74  68  81 W8        30.00R
RANTOUL*       CLOUDY    75  69  80 W6        29.99R
MATTOON        CLEAR     77  67  71 SW6       29.99S
PARIS*         CLEAR     73  68  82 CALM      29.99F
$$

ILZ079-100>102-260400-
SOUTHWEST ILLINOIS

CITY           SKY/WX    TMP DP  RH WIND       PRES   REMARKS
ALTON          CLEAR     73  66  78 CALM      30.03R
BELLEVILLE     PTCLDY    77  69  76 NW8       30.02R
CAHOKIA*       PTCLDY    78  65  63 NW10      30.03R HX  80
SPARTA*        CLEAR     73  70  92 CALM      30.04S
$$

ILZ064>066-069>071-074>076-080>082-084>086-088>090-092>094-260400-
SOUTH-CENTRAL ILLINOIS

CITY           SKY/WX    TMP DP  RH WIND       PRES   REMARKS
CARBONDALE     PTCLDY    70  70 100 CALM      30.02S
CAIRO*         CLEAR     73  70  93 CALM      30.02S
EFFINGHAM*     MOCLDY    74  72  94 S3        30.01F
MARION         PTCLDY    73  72  94 CALM      30.03S
MT. VERNON     CLOUDY    73  64  73 CALM      30.02S
CENTRALIA*     CLEAR     72  70  92 CALM      30.01S
SALEM*         CLEAR     74  68  80 CALM      30.01S
METROPOLIS*    MOCLDY    73  71  92 CALM      30.02S
$$

ILZ067-068-072-073-078-083-087-091-260400-
SOUTHEAST ILLINOIS

CITY           SKY/WX    TMP DP  RH WIND       PRES   REMARKS
LAWRENCEVILLE  CLEAR     75  68  78 S3        30.00S
FLORA*         CLOUDY    79  71  77 SW5       30.01S HX  82
FAIRFIELD*       N/A     74  71  88 CALM      30.00S
HARRISBURG*    CLEAR     73  71  94 CALM      30.02S
ROBINSON*      PTCLDY    70  69  95 CALM      30.01S
CARMI*         PTCLDY    72  70  92 S3        30.00S
$$

ABBREVIATIONS USED IN REMARKS
   TC - TEMPERATURE IN CELSIUS
  WCI - WIND CHILL INDEX
   HX - HEAT INDEX
  VSB - VISIBILITY
$$





USA.gov is the U.S. government's official web portal to all federal, state and local government web resources and services.